Location: S�deilles
(46.7500°N, 6.9329°E)
Time: 11:55:07
(UTC+00:00)

DELTA 2 R/B (1) - Pass Details

Date: 08 March 2021
Orbit: 790 x 803 km, 39.6° (Epoch: 23 April)

Event Time Altitude Azimuth Distance (km) Brightness Sun altitude
Rises 19:38:51 0° 254° (WSW) 3,280 7.6 -22.9°
Reaches altitude 10° 19:41:27 10° 247° (WSW) 2,350 6.6 -23.3°
Maximum altitude 19:46:35 40° 179° (S) 1,146 4.2 -24.1°
Enters shadow 19:46:44 40° 175° (S) 1,148 4.1 -24.2°
